SCP
8 7 7 8 7 6 8 7 7 8 7 6 8 6 4 2 1 1 1 1 0 1 0 0 0 0 0 0 0 0 0 0 0 0 0 0 0 0 0 0 0 0 0
8 8 6 8 7 7 5 4 0 7 9 7 8 5 3 1 1 1 1 1 1 0 0 0 0 0 0 0 0 0 0 0 0 0 0 0 0 0 0 0 0 0 0
4 7 8 6 6 3 0 0 0 0 3 4 6 3 1 1 1 1 1 1 0 0 0 0 0 0 0 0 0 0 0 0 0 0 0 0 0 0 0 0 0 0 0
1 6 9 5 5 2 1 0 0 0 -0 0 1 3 2 1 1 1 0 0 0 0 0 0 0 0 0 0 0 0 0 0 0 0 0 0 0 0 0 0 0 0 0
0 1 7 5 4 3 1 0 0 0 0 -0 0 2 2 1 0 0 0 0 0 0 0 0 0 0 0 0 0 0 0 0 0 0 0 0 0 0 0 0 0 0 0
0 1 5 3 1 1 0 0 0 0 0 0 -0 1 0 0 0 0 0 0 0 0 0 0 0 0 0 0 0 0 0 0 0 0 0 0 0 0 0 0 0 0 0
0 0 5 6 3 2 1 0 0 0 0 0 0 0 0 0 0 0 0 0 0 0 0 0 0 0 0 0 0 0 0 0 0 0 0 0 0 0 0 0 0 0 0
1 1 3 6 5 4 2 2 2 1 1 0 0 0 0 0 0 0 0 0 0 0 0 0 0 0 0 0 0 0 0 0 0 0 0 0 0 0 0 0 0 0 0
0 2 3 2 7 4 3 1 1 0 0 0 0 0 0 0 0 0 0 0 0 0 0 0 0 0 0 0 0 0 0 0 0 0 0 0 0 0 0 0 0 0 0
4 4 3 4 1 4 1 0 0 0 0 0 0 0 0 0 0 0 0 0 0 0 0 0 0 0 0 0 0 0 0 0 0 0 0 0 0 0 0 -0 0 0 0
1 1 2 1 0 0 0 0 0 0 0 0 0 0 0 0 0 0 0 0 0 0 0 0 0 0 0 0 0 0 0 0 0 0 0 0 0 0 0 0 0 0 0
0 0 0 0 0 0 0 0 0 0 0 0 0 0 0 0 0 0 0 0 0 0 0 0 0 0 0 0 0 0 0 0 0 0 0 0 0 0 0 0 0 0 0
0 0 0 0 0 0 0 0 0 0 0 0 0 0 0 0 0 0 0 0 0 0 0 0 0 0 0 0 0 0 0 0 0 0 0 0 0 0 0 0 0 0 0
0 0 0 0 0 0 0 0 0 0 0 0 0 0 0 0 0 0 0 0 0 0 0 0 0 0 0 0 0 0 0 0 0 0 0 0 0 0 0 0 0 0 0
0 0 0 0 0 0 0 0 0 0 0 0 0 0 0 0 0 0 0 0 0 0 0 0 0 0 0 0 0 0 0 0 0 0 0 0 0 0 0 0 0 0 0
0 0 0 0 0 0 0 0 0 0 0 0 0 0 0 0 0 0 0 0 0 0 0 0 0 0 0 0 0 0 0 0 0 0 0 0 0 0 0 0 0 0 0
0 0 0 0 0 0 0 0 0 0 0 0 0 0 0 0 0 0 0 0 0 0 0 0 0 0 0 0 0 0 0 0 0 0 0 0 0 0 0 0 0 0 0
0 0 0 0 0 0 0 0 0 0 0 0 0 0 0 0 0 0 0 0 0 0 0 0 0 0 0 0 0 0 0 0 0 0 0 0 0 0 0 0 0 0 0
0 0 0 0 0 0 0 0 0 0 0 0 0 0 0 0 0 0 0 0 0 0 0 0 0 0 0 0 0 0 0 0 0 0 0 0 0 0 0 0 0 0 0
0 0 0 0 0 0 0 0 0 0 0 0 0 0 0 0 0 0 0 0 0 0 0 0 0 0 0 0 0 0 0 0 0 0 0 0 0 0 0 0 0 0 0
0 0 0 0 0 0 0 0 0 0 0 0 0 0 0 0 0 0 0 0 0 0 0 0 0 0 0 0 0 0 0 0 0 0 0 0 0 0 0 0 0 0 0
0 0 0 0 0 0 0 0 0 0 0 0 0 0 0 0 0 0 0 0 0 0 0 0 0 0 0 0 0 0 0 0 0 0 0 0 0 0 0 0 0 0 0
-0 0 0 0 0 0 0 0 0 0 0 0 0 0 0 0 0 0 0 0 0 0 0 0 0 0 0 0 0 0 0 0 0 0 0 0 0 0 0 0 0 0 0
-0 -0 -0 -0 -0 -0 -0 -0 -0 -0 0 0 0 0 0 0 0 0 0 0 0 0 0 0 0 0 0 0 0 0 0 0 0 0 0 0 0 0 0 0 0 0 0
0 -0 0 -0 -0 0 0 -0 0 0 0 0 0 0 0 0 0 0 0 0 0 0 0 0 0 0 0 0 0 0 0 0 0 0 0 0 0 0 0 0 0 0 0
0 0 0 0 0 0 0 0 0 -0 0 0 0 0 0 0 0 0 0 0 0 0 0 0 0 0 0 0 0 0 0 0 0 0 0 0 0 0 0 0 0 0 0
Wind_Speed_500mb
89 86 86 107 111 93 79 82 79 81 88 92 94 86 80 68 61 60 58 57 46 45 40 31 25 14 10 13 18 19 9 16 19 17 17 22 25 35 32 36 26 31 32
83 85 85 84 100 92 93 75 78 69 93 99 87 90 80 68 64 62 56 49 50 47 36 26 20 17 13 16 14 17 12 14 10 12 11 18 18 25 30 35 29 26 28
74 77 79 80 82 93 91 79 59 64 57 89 93 92 74 71 66 64 58 49 49 42 31 26 20 15 11 17 12 10 12 11 2 14 18 12 17 19 35 27 27 23 27
51 86 82 83 83 94 105 113 74 76 59 64 75 68 79 73 68 69 63 54 50 40 34 25 21 15 11 7 5 2 8 6 7 9 6 8 14 27 23 28 27 28 30
71 57 84 71 71 90 89 96 80 129 70 80 43 65 74 76 74 73 65 58 52 43 34 25 15 10 9 9 12 10 10 5 12 11 4 8 19 25 27 25 23 20 22
66 59 63 66 56 73 98 101 83 78 84 74 87 82 78 71 70 66 66 57 49 40 29 22 14 8 6 5 8 9 7 3 3 2 4 6 15 19 26 22 31 29 28
45 64 59 61 53 62 71 86 94 87 101 80 86 91 84 69 62 67 59 51 44 33 24 17 14 9 8 9 11 9 8 7 8 9 10 15 19 27 27 20 22 29 36
53 50 56 71 71 67 64 69 76 88 87 87 86 86 75 65 70 65 53 48 37 29 27 26 16 7 4 6 14 11 13 12 17 19 22 23 24 26 28 18 15 26 33
42 26 49 70 76 76 78 83 88 96 94 83 74 69 72 75 68 60 50 45 42 39 30 20 8 7 13 17 12 13 7 4 12 19 24 26 24 25 26 26 19 13 11
26 31 43 49 74 79 92 94 99 93 88 82 70 66 75 79 67 51 43 41 40 35 26 15 11 8 13 18 15 22 12 6 18 19 26 30 30 32 34 37 31 30 21
45 49 48 37 40 78 93 97 99 92 82 73 70 74 76 71 59 48 40 38 31 26 20 16 11 14 15 14 10 10 13 17 22 25 23 14 20 22 23 28 26 29 29
45 48 43 47 59 76 85 84 83 79 77 72 75 84 76 69 63 50 39 28 25 19 19 20 22 21 19 17 20 28 28 24 21 18 7 12 11 16 16 22 22 20 26
46 44 51 57 71 79 82 80 80 81 79 79 82 90 82 72 67 54 41 37 30 18 16 22 26 25 26 28 27 25 21 20 12 11 12 14 15 18 18 15 15 15 18
65 71 72 75 79 80 80 79 77 67 64 60 65 72 73 63 54 45 39 39 29 21 29 33 29 26 31 31 25 22 25 20 19 15 17 15 14 15 19 23 23 19 22
73 82 86 88 87 87 83 71 65 58 54 51 51 56 64 61 54 47 39 33 27 32 41 39 34 34 27 25 18 15 22 19 17 15 15 15 17 16 22 25 24 21 27
79 81 84 87 82 82 78 74 56 53 52 49 45 49 54 48 49 39 36 36 42 44 40 36 32 26 23 19 16 15 13 17 19 15 15 18 20 22 23 24 25 21 27
76 80 83 81 78 77 74 70 69 53 45 41 39 39 37 46 47 48 43 50 47 42 36 31 28 26 23 20 18 15 14 20 16 16 15 17 18 17 20 23 26 28 27
64 72 73 78 78 77 74 73 70 71 69 61 46 42 45 46 42 43 54 52 42 35 30 29 29 24 23 23 20 15 19 16 15 13 14 18 19 20 22 25 29 35 27
56 62 64 64 66 66 66 65 64 64 63 61 54 51 45 44 52 56 49 42 35 32 28 28 24 23 21 19 15 16 18 18 16 15 18 17 19 20 21 22 22 28 32
48 53 58 59 57 57 58 57 56 56 52 52 50 51 51 55 50 43 40 33 33 31 28 29 26 23 22 23 21 16 16 19 16 12 14 14 20 19 20 20 22 28 30
48 45 44 45 42 42 43 45 45 42 46 51 58 65 61 43 38 35 36 31 29 26 25 24 22 22 23 24 19 16 14 12 19 17 17 13 20 22 20 20 22 25 30
46 47 47 48 47 50 54 51 51 56 63 70 68 57 46 37 35 34 33 33 30 29 28 27 27 26 27 27 23 17 14 14 21 21 17 15 18 21 18 21 24 25 30
26 26 30 36 40 46 44 42 43 45 48 57 57 43 40 39 33 34 34 32 32 30 28 24 21 20 19 21 24 20 17 16 25 21 21 16 17 22 18 20 24 26 28
22 22 29 30 39 41 35 37 36 35 35 53 39 35 36 36 35 35 34 33 35 34 33 31 24 24 16 13 18 16 13 10 16 23 23 19 10 19 20 18 23 22 25
25 23 23 33 33 33 35 36 36 30 53 38 39 40 36 35 30 30 30 30 26 23 22 23 21 18 12 16 18 17 17 17 16 17 19 22 15 15 21 20 22 22 25
22 29 28 27 32 36 39 41 40 40 37 39 35 33 30 30 29 31 32 31 30 28 23 15 13 17 17 16 16 16 16 18 20 19 18 12 11 18 18 21 19 20 23
Wind_Direction_500mb
208 219 220 218 216 212 207 208 201 201 199 202 201 196 200 196 193 198 206 214 205 195 206 207 202 207 225 265 299 293 293 260 270 280 293 314 340 343 340 353 1 347 359
203 211 220 225 221 211 206 201 195 208 210 201 196 197 196 191 191 196 207 206 198 199 202 198 198 209 229 262 279 288 310 311 328 358 354 21 333 328 327 343 345 2 6
210 206 212 214 216 215 206 201 189 193 212 210 190 190 187 190 190 192 202 193 200 201 196 197 204 209 225 280 274 288 261 289 28 7 30 355 340 319 325 347 347 10 16
231 210 208 219 218 219 209 203 220 218 276 289 188 181 187 187 187 190 198 195 197 189 186 192 194 209 257 253 275 310 300 89 22 348 17 338 298 310 327 338 23 44 30
237 232 210 216 216 218 219 218 222 216 232 230 225 196 177 183 182 191 194 191 191 185 185 196 198 212 256 240 248 275 290 238 207 175 179 277 303 336 345 12 23 30 61
225 240 215 204 209 217 225 219 207 208 223 220 212 178 178 183 188 188 188 186 188 183 185 180 185 209 230 184 229 271 281 306 317 319 265 346 348 358 9 30 48 44 28
254 229 210 186 206 215 216 214 208 210 199 215 195 182 178 181 183 184 186 180 178 172 168 169 175 148 142 114 81 64 45 34 33 18 31 40 37 27 25 48 52 25 4
286 229 217 190 192 192 189 184 184 177 184 166 170 174 177 178 181 176 174 169 160 155 148 160 200 141 160 128 95 45 26 14 34 59 57 58 46 30 23 17 41 45 30
289 231 205 200 181 173 174 176 176 168 170 172 177 175 171 168 171 171 172 164 167 168 167 182 174 155 149 150 145 131 120 7 65 73 63 50 35 25 24 24 48 40 31
225 207 197 191 178 172 161 167 167 171 170 179 178 169 170 162 157 164 174 174 174 166 163 175 140 122 137 155 159 135 172 104 88 72 45 27 25 15 8 3 9 9 11
214 201 195 186 188 166 154 151 158 167 174 173 169 166 165 163 156 165 174 177 166 147 154 157 152 133 138 144 136 124 120 117 78 69 60 25 20 9 357 358 353 349 4
202 203 202 173 175 163 159 153 158 171 172 168 163 162 161 159 157 159 159 147 124 138 119 121 127 126 127 122 121 113 106 94 74 62 69 27 15 338 22 8 10 356 2
193 182 179 171 158 158 159 157 156 159 161 154 154 159 159 160 156 153 150 140 152 142 118 125 123 120 119 111 114 113 113 92 92 83 62 42 20 21 15 16 32 16 355
157 157 160 163 155 157 158 164 164 158 159 148 156 158 159 156 155 154 156 155 155 123 120 123 120 117 109 93 89 68 79 100 85 75 63 49 15 54 16 28 24 35 29
148 148 151 151 153 151 148 146 152 148 154 152 156 161 160 160 161 164 166 159 142 131 122 116 109 92 84 85 80 100 104 95 75 70 76 61 32 42 35 19 20 56 27
142 144 147 147 145 146 143 136 137 145 154 156 159 160 159 160 161 157 155 145 138 126 114 104 104 116 116 104 98 94 77 102 87 66 69 63 43 34 39 20 15 52 32
142 140 140 142 143 141 142 143 138 136 136 134 139 139 146 143 140 141 135 129 123 116 126 131 130 130 128 129 120 106 85 80 72 70 71 71 52 42 41 27 19 29 34
140 145 143 139 141 142 144 142 142 142 136 128 128 124 129 128 128 130 131 126 120 122 133 134 131 133 131 128 122 118 122 103 82 77 63 75 68 43 39 34 26 13 23
132 134 135 138 140 142 143 141 142 139 133 129 130 127 121 126 130 128 123 117 127 129 134 134 133 135 132 124 115 118 97 99 90 74 63 66 64 56 40 35 39 14 8
116 124 128 129 134 138 139 139 137 139 136 134 135 128 127 129 131 123 117 127 134 134 139 134 132 125 120 117 117 111 111 101 90 82 63 71 67 58 45 34 33 27 5
110 117 114 119 125 128 133 141 141 142 142 130 122 119 120 125 125 128 129 127 129 133 128 127 126 125 118 112 116 122 130 137 110 84 74 32 81 52 41 39 29 35 5
114 114 114 116 122 128 128 127 130 136 136 137 135 132 129 124 134 134 137 136 136 131 135 142 143 145 144 140 132 133 140 128 119 94 74 38 78 60 40 44 30 29 19
112 120 121 126 134 135 133 139 142 138 143 141 130 121 133 146 148 144 141 144 146 145 145 144 143 145 165 166 169 172 173 152 133 117 95 48 69 64 36 49 36 28 28
91 100 124 133 132 128 127 126 123 139 132 138 127 140 147 151 151 150 150 155 153 153 157 159 148 135 156 145 136 131 125 105 122 118 100 58 39 85 47 39 46 28 23
137 131 139 131 125 133 137 140 146 122 132 132 144 150 154 157 158 155 150 144 140 133 134 150 161 163 146 115 124 119 112 116 121 116 104 87 11 79 65 34 46 28 25
134 143 139 149 148 149 151 153 150 146 149 150 155 163 163 154 151 148 148 147 143 145 150 143 143 137 132 128 121 118 118 118 120 112 87 67 79 41 69 51 36 40 28
Wind_Speed_850mb
89 86 86 107 111 93 79 82 79 81 88 92 94 86 80 68 61 60 58 57 46 45 40 31 25 14 10 13 18 19 9 16 19 17 17 22 25 35 32 36 26 31 32
83 85 85 84 100 92 93 75 78 69 93 99 87 90 80 68 64 62 56 49 50 47 36 26 20 17 13 16 14 17 12 14 10 12 11 18 18 25 30 35 29 26 28
74 77 79 80 82 93 91 79 59 64 57 89 93 92 74 71 66 64 58 49 49 42 31 26 20 15 11 17 12 10 12 11 2 14 18 12 17 19 35 27 27 23 27
51 86 82 83 83 94 105 113 74 76 59 64 75 68 79 73 68 69 63 54 50 40 34 25 21 15 11 7 5 2 8 6 7 9 6 8 14 27 23 28 27 28 30
71 57 84 71 71 90 89 96 80 129 70 80 43 65 74 76 74 73 65 58 52 43 34 25 15 10 9 9 12 10 10 5 12 11 4 8 19 25 27 25 23 20 22
66 59 63 66 56 73 98 101 83 78 84 74 87 82 78 71 70 66 66 57 49 40 29 22 14 8 6 5 8 9 7 3 3 2 4 6 15 19 26 22 31 29 28
45 64 59 61 53 62 71 86 94 87 101 80 86 91 84 69 62 67 59 51 44 33 24 17 14 9 8 9 11 9 8 7 8 9 10 15 19 27 27 20 22 29 36
53 50 56 71 71 67 64 69 76 88 87 87 86 86 75 65 70 65 53 48 37 29 27 26 16 7 4 6 14 11 13 12 17 19 22 23 24 26 28 18 15 26 33
42 26 49 70 76 76 78 83 88 96 94 83 74 69 72 75 68 60 50 45 42 39 30 20 8 7 13 17 12 13 7 4 12 19 24 26 24 25 26 26 19 13 11
26 31 43 49 74 79 92 94 99 93 88 82 70 66 75 79 67 51 43 41 40 35 26 15 11 8 13 18 15 22 12 6 18 19 26 30 30 32 34 37 31 30 21
45 49 48 37 40 78 93 97 99 92 82 73 70 74 76 71 59 48 40 38 31 26 20 16 11 14 15 14 10 10 13 17 22 25 23 14 20 22 23 28 26 29 29
45 48 43 47 59 76 85 84 83 79 77 72 75 84 76 69 63 50 39 28 25 19 19 20 22 21 19 17 20 28 28 24 21 18 7 12 11 16 16 22 22 20 26
46 44 51 57 71 79 82 80 80 81 79 79 82 90 82 72 67 54 41 37 30 18 16 22 26 25 26 28 27 25 21 20 12 11 12 14 15 18 18 15 15 15 18
65 71 72 75 79 80 80 79 77 67 64 60 65 72 73 63 54 45 39 39 29 21 29 33 29 26 31 31 25 22 25 20 19 15 17 15 14 15 19 23 23 19 22
73 82 86 88 87 87 83 71 65 58 54 51 51 56 64 61 54 47 39 33 27 32 41 39 34 34 27 25 18 15 22 19 17 15 15 15 17 16 22 25 24 21 27
79 81 84 87 82 82 78 74 56 53 52 49 45 49 54 48 49 39 36 36 42 44 40 36 32 26 23 19 16 15 13 17 19 15 15 18 20 22 23 24 25 21 27
76 80 83 81 78 77 74 70 69 53 45 41 39 39 37 46 47 48 43 50 47 42 36 31 28 26 23 20 18 15 14 20 16 16 15 17 18 17 20 23 26 28 27
64 72 73 78 78 77 74 73 70 71 69 61 46 42 45 46 42 43 54 52 42 35 30 29 29 24 23 23 20 15 19 16 15 13 14 18 19 20 22 25 29 35 27
56 62 64 64 66 66 66 65 64 64 63 61 54 51 45 44 52 56 49 42 35 32 28 28 24 23 21 19 15 16 18 18 16 15 18 17 19 20 21 22 22 28 32
48 53 58 59 57 57 58 57 56 56 52 52 50 51 51 55 50 43 40 33 33 31 28 29 26 23 22 23 21 16 16 19 16 12 14 14 20 19 20 20 22 28 30
48 45 44 45 42 42 43 45 45 42 46 51 58 65 61 43 38 35 36 31 29 26 25 24 22 22 23 24 19 16 14 12 19 17 17 13 20 22 20 20 22 25 30
46 47 47 48 47 50 54 51 51 56 63 70 68 57 46 37 35 34 33 33 30 29 28 27 27 26 27 27 23 17 14 14 21 21 17 15 18 21 18 21 24 25 30
26 26 30 36 40 46 44 42 43 45 48 57 57 43 40 39 33 34 34 32 32 30 28 24 21 20 19 21 24 20 17 16 25 21 21 16 17 22 18 20 24 26 28
22 22 29 30 39 41 35 37 36 35 35 53 39 35 36 36 35 35 34 33 35 34 33 31 24 24 16 13 18 16 13 10 16 23 23 19 10 19 20 18 23 22 25
25 23 23 33 33 33 35 36 36 30 53 38 39 40 36 35 30 30 30 30 26 23 22 23 21 18 12 16 18 17 17 17 16 17 19 22 15 15 21 20 22 22 25
22 29 28 27 32 36 39 41 40 40 37 39 35 33 30 30 29 31 32 31 30 28 23 15 13 17 17 16 16 16 16 18 20 19 18 12 11 18 18 21 19 20 23
Wind_Direction_850mb
208 219 220 218 216 212 207 208 201 201 199 202 201 196 200 196 193 198 206 214 205 195 206 207 202 207 225 265 299 293 293 260 270 280 293 314 340 343 340 353 1 347 359
203 211 220 225 221 211 206 201 195 208 210 201 196 197 196 191 191 196 207 206 198 199 202 198 198 209 229 262 279 288 310 311 328 358 354 21 333 328 327 343 345 2 6
210 206 212 214 216 215 206 201 189 193 212 210 190 190 187 190 190 192 202 193 200 201 196 197 204 209 225 280 274 288 261 289 28 7 30 355 340 319 325 347 347 10 16
231 210 208 219 218 219 209 203 220 218 276 289 188 181 187 187 187 190 198 195 197 189 186 192 194 209 257 253 275 310 300 89 22 348 17 338 298 310 327 338 23 44 30
237 232 210 216 216 218 219 218 222 216 232 230 225 196 177 183 182 191 194 191 191 185 185 196 198 212 256 240 248 275 290 238 207 175 179 277 303 336 345 12 23 30 61
225 240 215 204 209 217 225 219 207 208 223 220 212 178 178 183 188 188 188 186 188 183 185 180 185 209 230 184 229 271 281 306 317 319 265 346 348 358 9 30 48 44 28
254 229 210 186 206 215 216 214 208 210 199 215 195 182 178 181 183 184 186 180 178 172 168 169 175 148 142 114 81 64 45 34 33 18 31 40 37 27 25 48 52 25 4
286 229 217 190 192 192 189 184 184 177 184 166 170 174 177 178 181 176 174 169 160 155 148 160 200 141 160 128 95 45 26 14 34 59 57 58 46 30 23 17 41 45 30
289 231 205 200 181 173 174 176 176 168 170 172 177 175 171 168 171 171 172 164 167 168 167 182 174 155 149 150 145 131 120 7 65 73 63 50 35 25 24 24 48 40 31
225 207 197 191 178 172 161 167 167 171 170 179 178 169 170 162 157 164 174 174 174 166 163 175 140 122 137 155 159 135 172 104 88 72 45 27 25 15 8 3 9 9 11
214 201 195 186 188 166 154 151 158 167 174 173 169 166 165 163 156 165 174 177 166 147 154 157 152 133 138 144 136 124 120 117 78 69 60 25 20 9 357 358 353 349 4
202 203 202 173 175 163 159 153 158 171 172 168 163 162 161 159 157 159 159 147 124 138 119 121 127 126 127 122 121 113 106 94 74 62 69 27 15 338 22 8 10 356 2
193 182 179 171 158 158 159 157 156 159 161 154 154 159 159 160 156 153 150 140 152 142 118 125 123 120 119 111 114 113 113 92 92 83 62 42 20 21 15 16 32 16 355
157 157 160 163 155 157 158 164 164 158 159 148 156 158 159 156 155 154 156 155 155 123 120 123 120 117 109 93 89 68 79 100 85 75 63 49 15 54 16 28 24 35 29
148 148 151 151 153 151 148 146 152 148 154 152 156 161 160 160 161 164 166 159 142 131 122 116 109 92 84 85 80 100 104 95 75 70 76 61 32 42 35 19 20 56 27
142 144 147 147 145 146 143 136 137 145 154 156 159 160 159 160 161 157 155 145 138 126 114 104 104 116 116 104 98 94 77 102 87 66 69 63 43 34 39 20 15 52 32
142 140 140 142 143 141 142 143 138 136 136 134 139 139 146 143 140 141 135 129 123 116 126 131 130 130 128 129 120 106 85 80 72 70 71 71 52 42 41 27 19 29 34
140 145 143 139 141 142 144 142 142 142 136 128 128 124 129 128 128 130 131 126 120 122 133 134 131 133 131 128 122 118 122 103 82 77 63 75 68 43 39 34 26 13 23
132 134 135 138 140 142 143 141 142 139 133 129 130 127 121 126 130 128 123 117 127 129 134 134 133 135 132 124 115 118 97 99 90 74 63 66 64 56 40 35 39 14 8
116 124 128 129 134 138 139 139 137 139 136 134 135 128 127 129 131 123 117 127 134 134 139 134 132 125 120 117 117 111 111 101 90 82 63 71 67 58 45 34 33 27 5
110 117 114 119 125 128 133 141 141 142 142 130 122 119 120 125 125 128 129 127 129 133 128 127 126 125 118 112 116 122 130 137 110 84 74 32 81 52 41 39 29 35 5
114 114 114 116 122 128 128 127 130 136 136 137 135 132 129 124 134 134 137 136 136 131 135 142 143 145 144 140 132 133 140 128 119 94 74 38 78 60 40 44 30 29 19
112 120 121 126 134 135 133 139 142 138 143 141 130 121 133 146 148 144 141 144 146 145 145 144 143 145 165 166 169 172 173 152 133 117 95 48 69 64 36 49 36 28 28
91 100 124 133 132 128 127 126 123 139 132 138 127 140 147 151 151 150 150 155 153 153 157 159 148 135 156 145 136 131 125 105 122 118 100 58 39 85 47 39 46 28 23
137 131 139 131 125 133 137 140 146 122 132 132 144 150 154 157 158 155 150 144 140 133 134 150 161 163 146 115 124 119 112 116 121 116 104 87 11 79 65 34 46 28 25
134 143 139 149 148 149 151 153 150 146 149 150 155 163 163 154 151 148 148 147 143 145 150 143 143 137 132 128 121 118 118 118 120 112 87 67 79 41 69 51 36 40 28